Back to catalog

CTS

AliveCommunicationsGEO
NORAD 8585·PAYLOAD·🇨🇦 Canada

Launched Jan 17, 1976 from Cape Canaveral Space Force Station

Loading…

TLE

FreshSource: Space-Track

Epoch: Sep 14, 2026, 13:25 UTC

1 08585U 76004A   26257.55907938  .00000095  00000-0  00000-0 0  9995
2 08585   3.7056 270.6558 0017194 284.4091 221.0682  1.00238000123193

Track CTS in real time with AllMySat

Download on the App Store